Tiempo cada hora Almaya

Hoy, 31 Julio, Sábado

Tiempo Temperatura Precipitaciones Viento Presión Humedad
00:00 +11°C° 0.1 mm 1 mps 545 mmHg 94%
01:00 +11°C° 0.1 mm 1 mps 544 mmHg 94%
02:00 +10°C° 0.1 mm 1 mps 544 mmHg 94%
03:00 +10°C° 0 mm 1 mps 544 mmHg 94%
04:00 +10°C° 0 mm 1 mps 544 mmHg 94%
05:00 +10°C° 0 mm 1 mps 543 mmHg 94%
06:00 +11°C° 0 mm 1 mps 544 mmHg 89%
07:00 +13°C° 0 mm 1 mps 545 mmHg 84%
08:00 +14°C° 0 mm 1 mps 546 mmHg 79%
09:00 +16°C° 0.1 mm 1 mps 547 mmHg 71%
10:00 +17°C° 0.1 mm 2 mps 547 mmHg 62%
11:00 +19°C° 0.1 mm 2 mps 548 mmHg 53%
12:00 +19°C° 0.4 mm 2 mps 548 mmHg 55%
13:00 +19°C° 0.4 mm 2 mps 547 mmHg 56%
14:00 +19°C° 0.4 mm 2 mps 547 mmHg 57%
15:00 +18°C° 0.9 mm 2 mps 546 mmHg 64%
16:00 +17°C° 0.9 mm 2 mps 546 mmHg 70%
17:00 +15°C° 0.9 mm 2 mps 545 mmHg 77%
18:00 +14°C° 0.7 mm 2 mps 545 mmHg 80%
19:00 +13°C° 0.7 mm 1 mps 545 mmHg 84%
20:00 +12°C° 0.7 mm 1 mps 545 mmHg 88%
21:00 +12°C° 0.2 mm 1 mps 545 mmHg 89%
22:00 +11°C° 0.2 mm 1 mps 544 mmHg 90%
23:00 +11°C° 0.2 mm 1 mps 544 mmHg 91%

Mañana, 1 Agosto, Domingo

Tiempo Temperatura Precipitaciones Viento Presión Humedad
00:00 +10°C° 0.2 mm 1 mps 544 mmHg 91%
01:00 +10°C° 0.2 mm 1 mps 544 mmHg 91%
02:00 +10°C° 0.2 mm 1 mps 543 mmHg 91%
03:00 +10°C° 0 mm 1 mps 543 mmHg 92%
04:00 +10°C° 0 mm 1 mps 543 mmHg 92%
05:00 +9°C° 0 mm 1 mps 543 mmHg 92%
06:00 +11°C° 0.2 mm 1 mps 544 mmHg 88%
07:00 +13°C° 0.2 mm 1 mps 545 mmHg 84%
08:00 +14°C° 0.2 mm 1 mps 546 mmHg 80%
09:00 +16°C° 1 mm 1 mps 547 mmHg 75%
10:00 +18°C° 1 mm 1 mps 547 mmHg 71%
11:00 +19°C° 1 mm 1 mps 547 mmHg 66%
12:00 +19°C° 1.5 mm 1 mps 547 mmHg 69%
13:00 +18°C° 1.5 mm 1 mps 546 mmHg 72%
14:00 +16°C° 1.5 mm 1 mps 546 mmHg 74%
15:00 +15°C° 1.8 mm 1 mps 545 mmHg 79%
16:00 +15°C° 1.8 mm 1 mps 545 mmHg 84%
17:00 +14°C° 1.8 mm 2 mps 545 mmHg 88%
18:00 +13°C° 0.9 mm 2 mps 545 mmHg 89%
19:00 +12°C° 0.9 mm 1 mps 545 mmHg 90%
20:00 +11°C° 0.9 mm 1 mps 544 mmHg 91%
21:00 +10°C° 0 mm 1 mps 544 mmHg 91%
22:00 +10°C° 0 mm 1 mps 544 mmHg 90%
23:00 +10°C° 0 mm 1 mps 544 mmHg 90%

Pasado mañana, 2 Agosto, Lunes

Tiempo Temperatura Precipitaciones Viento Presión Humedad
00:00 +10°C° 0 mm 1 mps 544 mmHg 89%
01:00 +10°C° 0 mm 1 mps 543 mmHg 89%
02:00 +10°C° 0 mm 1 mps 543 mmHg 88%
03:00 +9°C° 0 mm 1 mps 543 mmHg 89%
04:00 +9°C° 0 mm 1 mps 543 mmHg 89%
05:00 +9°C° 0 mm 1 mps 543 mmHg 89%
06:00 +10°C° 0 mm 0 mps 544 mmHg 84%
07:00 +12°C° 0 mm 0 mps 545 mmHg 79%
08:00 +14°C° 0 mm 0 mps 546 mmHg 74%
09:00 +16°C° 0.5 mm 1 mps 547 mmHg 71%
10:00 +18°C° 0.5 mm 1 mps 547 mmHg 68%
11:00 +19°C° 0.5 mm 1 mps 547 mmHg 64%
12:00 +19°C° 0.8 mm 1 mps 546 mmHg 65%
13:00 +19°C° 0.8 mm 1 mps 546 mmHg 66%
14:00 +19°C° 0.8 mm 1 mps 545 mmHg 67%
15:00 +18°C° 1.1 mm 1 mps 545 mmHg 73%
16:00 +15°C° 1.1 mm 1 mps 544 mmHg 80%
17:00 +13°C° 1.1 mm 0 mps 544 mmHg 86%
18:00 +14°C° 2.3 mm 1 mps 544 mmHg 88%
19:00 +13°C° 2.3 mm 1 mps 544 mmHg 90%
20:00 +13°C° 2.3 mm 1 mps 544 mmHg 92%
21:00 +12°C° 1.6 mm 1 mps 544 mmHg 93%
22:00 +12°C° 1.6 mm 1 mps 544 mmHg 94%
23:00 +11°C° 1.6 mm 1 mps 544 mmHg 96%

3 Agosto, Martes

Tiempo Temperatura Precipitaciones Viento Presión Humedad
00:00 +11°C° 1.1 mm 1 mps 544 mmHg 95%
01:00 +11°C° 1.1 mm 1 mps 543 mmHg 95%
02:00 +11°C° 1.1 mm 1 mps 543 mmHg 95%
03:00 +11°C° 0.5 mm 1 mps 543 mmHg 94%
04:00 +11°C° 0.5 mm 1 mps 543 mmHg 94%
05:00 +11°C° 0.5 mm 1 mps 543 mmHg 94%
06:00 +12°C° 0.1 mm 1 mps 544 mmHg 91%
07:00 +11°C° 0.1 mm 0 mps 544 mmHg 88%
08:00 +12°C° 0.1 mm 0 mps 545 mmHg 85%
09:00 +14°C° 0.4 mm 1 mps 545 mmHg 82%
10:00 +15°C° 0.4 mm 1 mps 545 mmHg 79%
11:00 +16°C° 0.4 mm 1 mps 546 mmHg 76%
12:00 +16°C° 1 mm 1 mps 545 mmHg 76%
13:00 +16°C° 1 mm 1 mps 545 mmHg 77%
14:00 +16°C° 1 mm 1 mps 545 mmHg 77%
15:00 +16°C° 0.9 mm 1 mps 544 mmHg 80%
16:00 +15°C° 0.9 mm 1 mps 544 mmHg 82%
17:00 +15°C° 0.9 mm 1 mps 544 mmHg 84%
18:00 +14°C° 0.4 mm 1 mps 544 mmHg 87%
19:00 +13°C° 0.4 mm 1 mps 543 mmHg 90%
20:00 +11°C° 0.4 mm 1 mps 543 mmHg 93%
21:00 +11°C° 0.1 mm 1 mps 543 mmHg 93%
22:00 +11°C° 0.1 mm 1 mps 543 mmHg 93%
23:00 +10°C° 0.1 mm 1 mps 543 mmHg 93%

4 Agosto, Miércoles

Tiempo Temperatura Precipitaciones Viento Presión Humedad
00:00 +10°C° 0 mm 1 mps 543 mmHg 92%
01:00 +10°C° 0 mm 1 mps 542 mmHg 92%
02:00 +10°C° 0 mm 1 mps 542 mmHg 91%
03:00 +10°C° 0 mm 1 mps 542 mmHg 92%
04:00 +10°C° 0 mm 1 mps 542 mmHg 93%
05:00 +10°C° 0 mm 1 mps 542 mmHg 93%
06:00 +10°C° 0 mm 0 mps 543 mmHg 89%
07:00 +12°C° 0 mm 0 mps 544 mmHg 86%
08:00 +13°C° 0 mm 0 mps 545 mmHg 82%
09:00 +15°C° 0.5 mm 1 mps 545 mmHg 79%
10:00 +16°C° 0.5 mm 1 mps 545 mmHg 76%
11:00 +17°C° 0.5 mm 2 mps 546 mmHg 73%
12:00 +17°C° 1.1 mm 2 mps 545 mmHg 74%
13:00 +17°C° 1.1 mm 2 mps 545 mmHg 75%
14:00 +16°C° 1.1 mm 2 mps 544 mmHg 77%
15:00 +15°C° 1.7 mm 1 mps 544 mmHg 81%
16:00 +15°C° 1.7 mm 1 mps 544 mmHg 86%
17:00 +13°C° 1.7 mm 0 mps 543 mmHg 91%
18:00 +13°C° 1.7 mm 1 mps 543 mmHg 91%
19:00 +12°C° 1.7 mm 1 mps 543 mmHg 92%
20:00 +10°C° 1.7 mm 2 mps 543 mmHg 92%
21:00 +11°C° 0.4 mm 1 mps 544 mmHg 93%
22:00 +11°C° 0.4 mm 1 mps 544 mmHg 94%
23:00 +11°C° 0.4 mm 1 mps 544 mmHg 94%

5 Agosto, Jueves

Tiempo Temperatura Precipitaciones Viento Presión Humedad
00:00 +11°C° 0.3 mm 1 mps 544 mmHg 95%
01:00 +11°C° 0.3 mm 1 mps 543 mmHg 95%
02:00 +11°C° 0.3 mm 1 mps 543 mmHg 95%
03:00 +11°C° 0.1 mm 1 mps 543 mmHg 95%
04:00 +11°C° 0.1 mm 1 mps 543 mmHg 95%
05:00 +11°C° 0.1 mm 1 mps 543 mmHg 95%
06:00 +12°C° 0 mm 1 mps 544 mmHg 91%
07:00 +12°C° 0 mm 0 mps 545 mmHg 86%
08:00 +13°C° 0 mm 0 mps 545 mmHg 82%
09:00 +16°C° 0.4 mm 1 mps 546 mmHg 76%
10:00 +18°C° 0.4 mm 1 mps 546 mmHg 71%
11:00 +18°C° 0.4 mm 2 mps 547 mmHg 65%
12:00 +19°C° 0.8 mm 1 mps 546 mmHg 67%
13:00 +19°C° 0.8 mm 1 mps 546 mmHg 68%
14:00 +19°C° 0.8 mm 1 mps 545 mmHg 70%
15:00 +16°C° 2.5 mm 1 mps 545 mmHg 76%
16:00 +15°C° 2.5 mm 1 mps 544 mmHg 83%
17:00 +14°C° 2.5 mm 1 mps 544 mmHg 89%
18:00 +13°C° 2.9 mm 1 mps 544 mmHg 90%
19:00 +12°C° 2.9 mm 1 mps 544 mmHg 90%
20:00 +10°C° 2.9 mm 2 mps 544 mmHg 91%
21:00 +10°C° 0.1 mm 1 mps 544 mmHg 90%
22:00 +10°C° 0.1 mm 1 mps 544 mmHg 90%
23:00 +10°C° 0.1 mm 1 mps 544 mmHg 89%
Mostrar más

Necesitamos Su Consentimiento

Meteoprog y nuestros Proveedores de Servicios pueden almacenar y acceder a sus datos personales como cookies, identificadores de dispositivo u otras tecnologías similares de su dispositivo y procesar dichos datos para personalizar contenido y anuncios, además de ofrecer funciones de redes sociales y analizar el tráfico.

  • Almacenar y/o acceder a información en su dispositivo

    Se puede almacenar o acceder a cookies, identificadores de dispositivo u otra información de su dispositivo para los fines anteriormente indicados.

  • Anuncios y contenido personalizados, medición de anuncios y contenido, percepciones del público, y desarrollo de productos

    Los anuncios y el contenido pueden personalizarse en base a su perfil. Se pueden añadir más datos para personalizar mejor los anuncios y contenidos. Se puede medir el rendimiento de los anuncios y contenidos. Se puede obtener la percepción sobre el público que ha visto los anuncios y contenidos. Dichos datos pueden usarse para desarrollar o mejorar la experiencia del usuario, sistemas y software.

Al hacer clic en ‘Estoy De Acuerdo’ usted permitirá el uso de las cookies, identificadores de dispositivo, balizas web u otras tecnologías similares indicadas. Su configuración puede cambiarse desde el navegador de su dispositivo.

Para ciertos fines, los intereses legítimos pueden ser considerados por encima del consentimiento. Puede leer más sobre ello en nuestra Política de Privacidad y Cookies.